| time (UTC) | temp C | wind direction | speed KPH | gust KPH | rain 1hr cm | rain 24hr cm | rain mn cm | humidity % | barometer mb |
| 20260502190016 | 19 | 355 | 35.4 | 45.1 | 0.00 | 0.00 | 0.00 | 35 | 933.1 |
| 20260502185519 | 19 | 355 | 33.8 | 45.1 | 0.00 | 0.00 | 0.00 | 35 | 933.1 |
| 20260502185017 | 18 | 360 | 32.2 | 45.1 | 0.00 | 0.00 | 0.00 | 35 | 933.1 |
| 20260502184518 | 19 | 12 | 22.5 | 45.1 | 0.00 | 0.00 | 0.00 | 34 | 933.0 |
| 20260502184017 | 19 | 9 | 25.7 | 45.1 | 0.00 | 0.00 | 0.00 | 34 | 933.0 |
| 20260502183516 | 19 | 334 | 33.8 | 45.1 | 0.00 | 0.00 | 0.00 | 34 | 933.0 |
| 20260502183016 | 19 | 348 | 25.7 | 37.0 | 0.00 | 0.00 | 0.00 | 35 | 933.1 |
| 20260502182018 | 18 | 344 | 25.7 | 43.5 | 0.00 | 0.00 | 0.00 | 35 | 932.9 |
| 20260502181516 | 19 | 322 | 22.5 | 45.1 | 0.00 | 0.00 | 0.00 | 34 | 933.1 |
| 20260502181016 | 18 | 333 | 24.1 | 40.2 | 0.00 | 0.00 | 0.00 | 35 | 933.1 |
| 20260502180517 | 18 | 347 | 29.0 | 41.8 | 0.00 | 0.00 | 0.00 | 34 | 933.1 |
| 20260502170513 | 17 | 345 | 24.1 | 33.8 | 0.00 | 0.00 | 0.00 | 38 | 933.0 |
| 20260502164009 | 17 | 351 | 27.4 | 41.8 | 0.00 | 0.00 | 0.00 | 40 | 932.9 |
| 20260502163512 | 17 | 11 | 29.0 | 38.6 | 0.00 | 0.00 | 0.00 | 39 | 932.9 |
| 20260502163009 | 17 | 10 | 29.0 | 38.6 | 0.00 | 0.00 | 0.00 | 40 | 932.9 |
| 20260502162012 | 17 | 5 | 24.1 | 35.4 | 0.00 | 0.00 | 0.00 | 40 | 932.7 |
| 20260502161508 | 17 | 355 | 27.4 | 35.4 | 0.00 | 0.00 | 0.00 | 41 | 932.7 |
| 20260502161010 | 17 | 355 | 25.7 | 37.0 | 0.00 | 0.00 | 0.00 | 41 | 932.8 |
| 20260502160510 | 17 | 344 | 24.1 | 37.0 | 0.00 | 0.00 | 0.00 | 40 | 932.6 |
| 20260502152002 | 16 | 344 | 20.9 | 29.0 | 0.00 | 0.00 | 0.00 | 42 | 932.4 |
| 20260502151504 | 17 | 344 | 17.7 | 35.4 | 0.00 | 0.00 | 0.00 | 43 | 932.4 |
| 20260502151002 | 16 | 340 | 19.3 | 35.4 | 0.00 | 0.00 | 0.00 | 42 | 932.5 |
| 20260502150603 | 16 | 360 | 20.9 | 30.6 | 0.00 | 0.00 | 0.00 | 42 | 932.5 |
| 20260502150502 | 16 | 341 | 20.9 | 30.6 | 0.00 | 0.00 | 0.00 | 43 | 932.5 |
| 20260502150114 | 16 | 351 | 17.7 | 29.0 | 0.00 | 0.00 | 0.00 | 42 | 932.4 |
| 20260502130542 | 10 | 360 | 9.7 | 14.5 | 0.00 | 0.00 | 0.00 | 56 | 932.2 |
| 20260502123541 | 9 | 360 | 8.0 | 16.1 | 0.00 | 0.00 | 0.00 | 55 | 932.2 |
| 20260502123041 | 8 | 360 | 9.7 | 16.1 | 0.00 | 0.00 | 0.00 | 55 | 932.1 |
| 20260502122641 | 8 | 360 | 6.4 | 9.7 | 0.00 | 0.00 | 0.00 | 57 | 932.0 |
| 20260502122041 | 8 | 360 | 6.4 | 9.7 | 0.00 | 0.00 | 0.00 | 56 | 932.0 |
| 20260502121545 | 8 | 360 | 6.4 | 9.7 | 0.00 | 0.00 | 0.00 | 55 | 932.0 |
| 20260502121039 | 8 | 360 | 4.8 | 14.5 | 0.00 | 0.00 | 0.00 | 54 | 931.9 |
| 20260502120539 | 9 | 360 | 9.7 | 16.1 | 0.00 | 0.00 | 0.00 | 52 | 931.9 |
| 20260502115540 | 11 | 360 | 14.5 | 22.5 | 0.00 | 0.00 | 0.00 | 46 | 931.5 |
| 20260502115039 | 11 | 360 | 16.1 | 25.7 | 0.00 | 0.00 | 0.00 | 46 | 931.2 |
| 20260502114538 | 11 | 360 | 19.3 | 30.6 | 0.00 | 0.00 | 0.00 | 46 | 931.2 |
| 20260502114039 | 11 | 360 | 19.3 | 33.8 | 0.00 | 0.00 | 0.00 | 46 | 931.1 |
| 20260502113538 | 11 | 360 | 20.9 | 33.8 | 0.00 | 0.00 | 0.00 | 46 | 931.1 |
| 20260502113038 | 11 | 360 | 19.3 | 33.8 | 0.00 | 0.00 | 0.00 | 47 | 931.2 |
| 20260502112036 | 10 | 360 | 22.5 | 37.0 | 0.00 | 0.00 | 0.00 | 50 | 931.5 |
| 20260502111536 | 9 | 360 | 16.1 | 22.5 | 0.00 | 0.00 | 0.00 | 52 | 931.7 |
| 20260502111036 | 8 | 360 | 14.5 | 19.3 | 0.00 | 0.00 | 0.00 | 53 | 931.7 |
| 20260502110535 | 8 | 360 | 12.9 | 16.1 | 0.00 | 0.00 | 0.00 | 52 | 931.9 |
| 20260502110033 | 8 | 360 | 9.7 | 12.9 | 0.00 | 0.00 | 0.00 | 51 | 932.0 |
| 20260502105633 | 9 | 360 | 9.7 | 16.1 | 0.00 | 0.00 | 0.00 | 50 | 932.1 |
| 20260502105033 | 9 | 360 | 11.3 | 19.3 | 0.00 | 0.00 | 0.00 | 49 | 931.9 |
| 20260502104542 | 10 | 360 | 14.5 | 24.1 | 0.00 | 0.00 | 0.00 | 48 | 931.8 |
| 20260502104028 | 10 | 360 | 16.1 | 33.8 | 0.00 | 0.00 | 0.00 | 47 | 931.9 |
| 20260502103528 | 10 | 360 | 20.9 | 33.8 | 0.00 | 0.00 | 0.00 | 47 | 931.6 |
| 20260502103028 | 10 | 360 | 20.9 | 30.6 | 0.00 | 0.00 | 0.00 | 46 | 931.7 |
| 20260502102028 | 11 | 360 | 17.7 | 24.1 | 0.00 | 0.00 | 0.00 | 44 | 931.2 |
| 20260502101526 | 11 | 360 | 14.5 | 22.5 | 0.00 | 0.00 | 0.00 | 43 | 931.1 |
| 20260502101030 | 11 | 360 | 14.5 | 22.5 | 0.00 | 0.00 | 0.00 | 43 | 931.2 |
| 20260502100526 | 11 | 360 | 16.1 | 20.9 | 0.00 | 0.00 | 0.00 | 42 | 931.2 |
| 20260502091525 | 11 | 360 | 11.3 | 19.3 | 0.00 | 0.00 | 0.00 | 41 | 931.5 |
| 20260502091023 | 11 | 360 | 9.7 | 16.1 | 0.00 | 0.00 | 0.00 | 41 | 931.5 |
| 20260502090522 | 11 | 360 | 8.0 | 20.9 | 0.00 | 0.00 | 0.00 | 41 | 931.6 |
| 20260502071525 | 10 | 360 | 9.7 | 20.9 | 0.00 | 0.00 | 0.00 | 41 | 932.2 |
| 20260502071014 | 10 | 360 | 12.9 | 22.5 | 0.00 | 0.00 | 0.00 | 41 | 932.1 |
| 20260502070512 | 10 | 360 | 14.5 | 22.5 | 0.00 | 0.00 | 0.00 | 40 | 932.1 |
| 20260502070011 | 10 | 360 | 16.1 | 25.7 | 0.00 | 0.00 | 0.00 | 40 | 932.1 |
| 20260502065510 | 11 | 360 | 16.1 | 30.6 | 0.00 | 0.00 | 0.00 | 40 | 932.2 |
| 20260502065008 | 11 | 360 | 20.9 | 35.4 | 0.00 | 0.00 | 0.00 | 39 | 932.2 |
| 20260502064511 | 11 | 360 | 20.9 | 37.0 | 0.00 | 0.00 | 0.00 | 38 | 932.3 |
| 20260502064006 | 11 | 360 | 24.1 | 38.6 | 0.00 | 0.00 | 0.00 | 37 | 932.3 |
| 20260502063505 | 11 | 360 | 24.1 | 38.6 | 0.00 | 0.00 | 0.00 | 37 | 932.2 |
| 20260502063005 | 11 | 360 | 24.1 | 38.6 | 0.00 | 0.00 | 0.00 | 37 | 932.3 |
| 20260502062004 | 12 | 360 | 22.5 | 37.0 | 0.00 | 0.00 | 0.00 | 36 | 932.4 |
| 20260502061502 | 12 | 360 | 27.4 | 37.0 | 0.00 | 0.00 | 0.00 | 36 | 932.4 |
| 20260502061002 | 11 | 360 | 22.5 | 33.8 | 0.00 | 0.00 | 0.00 | 36 | 932.6 |
| 20260502060501 | 11 | 360 | 22.5 | 33.8 | 0.00 | 0.00 | 0.00 | 36 | 932.6 |
| 20260502060001 | 11 | 360 | 22.5 | 33.8 | 0.00 | 0.00 | 0.00 | 36 | 932.7 |
| 20260502055604 | 11 | 360 | 20.9 | 33.8 | 0.00 | 0.00 | 0.00 | 36 | 932.7 |
| 20260502055102 | 11 | 360 | 20.9 | 32.2 | 0.00 | 0.00 | 0.00 | 36 | 932.8 |
| 20260502054600 | 11 | 360 | 20.9 | 33.8 | 0.00 | 0.00 | 0.00 | 36 | 932.8 |
| 20260502054100 | 11 | 360 | 20.9 | 32.2 | 0.00 | 0.00 | 0.00 | 35 | 932.9 |
| 20260502053603 | 11 | 360 | 20.9 | 30.6 | 0.00 | 0.00 | 0.00 | 35 | 933.0 |
| 20260502053058 | 11 | 360 | 20.9 | 32.2 | 0.00 | 0.00 | 0.00 | 35 | 932.8 |
| 20260502052700 | 11 | 360 | 19.3 | 32.2 | 0.00 | 0.00 | 0.00 | 34 | 933.0 |
| 20260502052059 | 12 | 360 | 17.7 | 32.2 | 0.00 | 0.00 | 0.00 | 34 | 933.1 |
| 20260502051654 | 12 | 360 | 20.9 | 32.2 | 0.00 | 0.00 | 0.00 | 34 | 933.2 |
| 20260502051057 | 12 | 360 | 20.9 | 30.6 | 0.00 | 0.00 | 0.00 | 34 | 933.2 |
| 20260502050557 | 12 | 360 | 14.5 | 24.1 | 0.00 | 0.00 | 0.00 | 33 | 933.3 |
| 20260502050100 | 11 | 360 | 16.1 | 24.1 | 0.00 | 0.00 | 0.00 | 33 | 933.3 |
| 20260502045557 | 11 | 360 | 16.1 | 24.1 | 0.00 | 0.00 | 0.00 | 33 | 933.3 |
| 20260502045056 | 11 | 360 | 16.1 | 24.1 | 0.00 | 0.00 | 0.00 | 33 | 933.4 |
| 20260502044606 | 11 | 360 | 14.5 | 20.9 | 0.00 | 0.00 | 0.00 | 34 | 933.5 |
| 20260502044054 | 11 | 360 | 12.9 | 20.9 | 0.00 | 0.00 | 0.00 | 34 | 933.5 |
| 20260502043555 | 11 | 360 | 14.5 | 20.9 | 0.00 | 0.00 | 0.00 | 34 | 933.5 |
| 20260502043054 | 11 | 360 | 12.9 | 19.3 | 0.00 | 0.00 | 0.00 | 35 | 933.6 |
| 20260502042655 | 11 | 360 | 11.3 | 19.3 | 0.00 | 0.00 | 0.00 | 35 | 933.6 |
| 20260502042055 | 11 | 360 | 11.3 | 19.3 | 0.00 | 0.00 | 0.00 | 35 | 933.6 |
| 20260502041555 | 11 | 360 | 11.3 | 19.3 | 0.00 | 0.00 | 0.00 | 35 | 933.7 |
| 20260502041057 | 11 | 360 | 12.9 | 19.3 | 0.00 | 0.00 | 0.00 | 35 | 933.8 |
| 20260502040554 | 11 | 360 | 12.9 | 19.3 | 0.00 | 0.00 | 0.00 | 35 | 933.8 |
| 20260502040054 | 11 | 360 | 12.9 | 19.3 | 0.00 | 0.00 | 0.00 | 35 | 933.8 |
| 20260502035553 | 11 | 360 | 12.9 | 17.7 | 0.00 | 0.00 | 0.00 | 35 | 933.9 |
| 20260502035057 | 11 | 360 | 11.3 | 17.7 | 0.00 | 0.00 | 0.00 | 35 | 934.0 |
| 20260502034552 | 11 | 360 | 9.7 | 16.1 | 0.00 | 0.00 | 0.00 | 35 | 933.9 |
| 20260502034054 | 11 | 360 | 11.3 | 17.7 | 0.00 | 0.00 | 0.00 | 35 | 934.0 |
| 20260502033551 | 11 | 360 | 11.3 | 16.1 | 0.00 | 0.00 | 0.00 | 35 | 934.0 |
| 20260502033055 | 11 | 360 | 11.3 | 14.5 | 0.00 | 0.00 | 0.00 | 35 | 934.1 |
| 20260502032652 | 11 | 360 | 9.7 | 14.5 | 0.00 | 0.00 | 0.00 | 35 | 934.0 |
| 20260502032050 | 11 | 360 | 9.7 | 14.5 | 0.00 | 0.00 | 0.00 | 35 | 934.1 |
| 20260502031607 | 11 | 360 | 9.7 | 14.5 | 0.00 | 0.00 | 0.00 | 35 | 934.0 |
| 20260502031050 | 11 | 360 | 9.7 | 14.5 | 0.00 | 0.00 | 0.00 | 34 | 934.2 |
| 20260502030554 | 11 | 360 | 9.7 | 14.5 | 0.00 | 0.00 | 0.00 | 34 | 934.2 |
| 20260502030049 | 11 | 360 | 9.7 | 12.9 | 0.00 | 0.00 | 0.00 | 34 | 934.1 |
| 20260502025549 | 11 | 360 | 9.7 | 12.9 | 0.00 | 0.00 | 0.00 | 33 | 934.1 |
| 20260502025048 | 11 | 360 | 9.7 | 12.9 | 0.00 | 0.00 | 0.00 | 33 | 934.0 |
| 20260502024554 | 11 | 360 | 9.7 | 14.5 | 0.00 | 0.00 | 0.00 | 34 | 934.1 |
| 20260502024049 | 11 | 360 | 9.7 | 14.5 | 0.00 | 0.00 | 0.00 | 34 | 934.2 |
| 20260502023549 | 11 | 360 | 9.7 | 12.9 | 0.00 | 0.00 | 0.00 | 34 | 934.1 |
| 20260502023049 | 11 | 360 | 9.7 | 12.9 | 0.00 | 0.00 | 0.00 | 33 | 934.0 |
| 20260502022649 | 12 | 360 | 8.0 | 11.3 | 0.00 | 0.00 | 0.00 | 31 | 934.1 |
| 20260502022049 | 12 | 360 | 8.0 | 11.3 | 0.00 | 0.00 | 0.00 | 31 | 934.0 |
| 20260502021552 | 13 | 360 | 8.0 | 11.3 | 0.00 | 0.00 | 0.00 | 30 | 934.0 |
| 20260502021049 | 13 | 190 | 8.0 | 12.9 | 0.00 | 0.00 | 0.00 | 30 | 934.0 |
| 20260502020550 | 13 | 360 | 8.0 | 12.9 | 0.00 | 0.00 | 0.00 | 29 | 934.0 |
| 20260502015547 | 14 | 360 | 8.0 | 12.9 | 0.00 | 0.00 | 0.00 | 28 | 934.1 |
| 20260502015052 | 15 | 360 | 8.0 | 11.3 | 0.00 | 0.00 | 0.00 | 28 | 934.0 |
| 20260502014548 | 15 | 213 | 6.4 | 9.7 | 0.00 | 0.00 | 0.00 | 28 | 934.1 |
| 20260502014048 | 16 | 219 | 4.8 | 8.0 | 0.00 | 0.00 | 0.00 | 27 | 934.1 |
| 20260502013548 | 16 | 219 | 4.8 | 9.7 | 0.00 | 0.00 | 0.00 | 26 | 934.2 |
| 20260502013048 | 17 | 219 | 6.4 | 11.3 | 0.00 | 0.00 | 0.00 | 25 | 934.2 |
| 20260502012048 | 17 | 233 | 8.0 | 16.1 | 0.00 | 0.00 | 0.00 | 24 | 934.2 |
| 20260502011550 | 17 | 211 | 11.3 | 16.1 | 0.00 | 0.00 | 0.00 | 22 | 934.2 |
| 20260502011045 | 18 | 215 | 9.7 | 14.5 | 0.00 | 0.00 | 0.00 | 22 | 934.3 |
| 20260502010547 | 18 | 216 | 9.7 | 14.5 | 0.00 | 0.00 | 0.00 | 22 | 934.2 |
| 20260502010052 | 18 | 229 | 9.7 | 16.1 | 0.00 | 0.00 | 0.00 | 22 | 934.3 |
| 20260502005545 | 18 | 219 | 9.7 | 16.1 | 0.00 | 0.00 | 0.00 | 23 | 934.3 |
| 20260502005047 | 18 | 231 | 11.3 | 19.3 | 0.00 | 0.00 | 0.00 | 22 | 934.4 |
| 20260502004544 | 18 | 217 | 9.7 | 19.3 | 0.00 | 0.00 | 0.00 | 22 | 934.4 |
| 20260502004043 | 18 | 216 | 12.9 | 19.3 | 0.00 | 0.00 | 0.00 | 22 | 934.4 |
| 20260502003547 | 18 | 219 | 12.9 | 19.3 | 0.00 | 0.00 | 0.00 | 22 | 934.4 |
| 20260502003043 | 18 | 221 | 11.3 | 20.9 | 0.00 | 0.00 | 0.00 | 22 | 934.5 |
| 20260502002645 | 19 | 230 | 9.7 | 20.9 | 0.00 | 0.00 | 0.00 | 21 | 934.5 |
| 20260502002044 | 19 | 240 | 9.7 | 20.9 | 0.00 | 0.00 | 0.00 | 21 | 934.5 |
| 20260502001544 | 19 | 249 | 11.3 | 20.9 | 0.00 | 0.00 | 0.00 | 21 | 934.5 |
| 20260502001043 | 19 | 227 | 9.7 | 17.7 | 0.00 | 0.00 | 0.00 | 20 | 934.6 |
| 20260502000543 | 19 | 227 | 14.5 | 17.7 | 0.00 | 0.00 | 0.00 | 20 | 934.6 |
| 20260502000043 | 19 | 215 | 9.7 | 14.5 | 0.00 | 0.00 | 0.00 | 22 | 934.5 |
| 20260501235545 | 19 | 211 | 9.7 | 17.7 | 0.00 | 0.00 | 0.00 | 22 | 934.5 |
| 20260501235043 | 19 | 194 | 11.3 | 19.3 | 0.00 | 0.00 | 0.00 | 21 | 934.5 |
| 20260501234551 | 19 | 238 | 9.7 | 22.5 | 0.00 | 0.00 | 0.00 | 21 | 934.5 |
| 20260501234042 | 20 | 223 | 14.5 | 22.5 | 0.00 | 0.00 | 0.00 | 21 | 934.6 |
| 20260501233542 | 20 | 257 | 3.2 | 30.6 | 0.00 | 0.00 | 0.00 | 21 | 934.6 |
| 20260501233042 | 19 | 211 | 9.7 | 32.2 | 0.00 | 0.00 | 0.00 | 22 | 934.5 |
| 20260501232541 | 19 | 186 | 12.9 | 20.9 | 0.00 | 0.00 | 0.00 | 21 | 934.6 |
| 20260501232045 | 19 | 190 | 11.3 | 20.9 | 0.00 | 0.00 | 0.00 | 22 | 934.6 |
| 20260501231554 | 19 | 162 | 9.7 | 22.5 | 0.00 | 0.00 | 0.00 | 22 | 934.6 |
| 20260501231040 | 19 | 217 | 14.5 | 22.5 | 0.00 | 0.00 | 0.00 | 22 | 934.6 |
| 20260501230540 | 19 | 166 | 6.4 | 17.7 | 0.00 | 0.00 | 0.00 | 22 | 934.6 |
| 20260501230040 | 19 | 158 | 6.4 | 16.1 | 0.00 | 0.00 | 0.00 | 22 | 934.7 |
| 20260501225540 | 19 | 196 | 6.4 | 19.3 | 0.00 | 0.00 | 0.00 | 23 | 934.7 |
| 20260501225038 | 20 | 180 | 11.3 | 24.1 | 0.00 | 0.00 | 0.00 | 23 | 934.8 |
| 20260501224539 | 19 | 181 | 11.3 | 24.1 | 0.00 | 0.00 | 0.00 | 23 | 934.7 |
| 20260501224138 | 20 | 209 | 9.7 | 17.7 | 0.00 | 0.00 | 0.00 | 23 | 934.8 |
| 20260501223537 | 19 | 213 | 11.3 | 16.1 | 0.00 | 0.00 | 0.00 | 23 | 934.8 |
| 20260501223036 | 19 | 165 | 6.4 | 14.5 | 0.00 | 0.00 | 0.00 | 23 | 934.9 |
| 20260501222036 | 19 | 223 | 11.3 | 20.9 | 0.00 | 0.00 | 0.00 | 24 | 935.0 |
| 20260501221536 | 19 | 181 | 9.7 | 19.3 | 0.00 | 0.00 | 0.00 | 24 | 935.0 |
| 20260501221035 | 19 | 164 | 6.4 | 19.3 | 0.00 | 0.00 | 0.00 | 24 | 935.1 |
| 20260501220534 | 19 | 181 | 11.3 | 20.9 | 0.00 | 0.00 | 0.00 | 23 | 935.2 |
| 20260501220034 | 19 | 202 | 12.9 | 20.9 | 0.00 | 0.00 | 0.00 | 24 | 935.2 |
| 20260501215534 | 19 | 188 | 11.3 | 22.5 | 0.00 | 0.00 | 0.00 | 25 | 935.2 |
| 20260501215034 | 19 | 157 | 12.9 | 22.5 | 0.00 | 0.00 | 0.00 | 23 | 935.3 |
| 20260501214545 | 19 | 214 | 8.0 | 22.5 | 0.00 | 0.00 | 0.00 | 24 | 935.4 |
| 20260501214032 | 19 | 188 | 6.4 | 16.1 | 0.00 | 0.00 | 0.00 | 23 | 935.5 |
| 20260501213530 | 18 | 214 | 6.4 | 20.9 | 0.00 | 0.00 | 0.00 | 24 | 935.5 |
| 20260501213031 | 18 | 233 | 9.7 | 24.1 | 0.00 | 0.00 | 0.00 | 24 | 935.5 |
| 20260501212631 | 19 | 184 | 9.7 | 19.3 | 0.00 | 0.00 | 0.00 | 25 | 935.5 |
| 20260501212032 | 19 | 171 | 9.7 | 19.3 | 0.00 | 0.00 | 0.00 | 24 | 935.5 |
| 20260501211530 | 18 | 294 | 11.3 | 19.3 | 0.00 | 0.00 | 0.00 | 25 | 935.7 |
| 20260501211028 | 18 | 258 | 11.3 | 17.7 | 0.00 | 0.00 | 0.00 | 25 | 935.6 |
| 20260501210528 | 18 | 148 | 9.7 | 20.9 | 0.00 | 0.00 | 0.00 | 24 | 935.6 |
| 20260501210028 | 18 | 157 | 12.9 | 20.9 | 0.00 | 0.00 | 0.00 | 25 | 935.7 |
| 20260501205528 | 18 | 300 | 4.8 | 14.5 | 0.00 | 0.00 | 0.00 | 25 | 935.7 |
| 20260501205027 | 18 | 291 | 4.8 | 17.7 | 0.00 | 0.00 | 0.00 | 25 | 935.7 |
| 20260501204527 | 18 | 237 | 8.0 | 20.9 | 0.00 | 0.00 | 0.00 | 24 | 935.9 |
| 20260501204027 | 18 | 222 | 12.9 | 20.9 | 0.00 | 0.00 | 0.00 | 25 | 935.8 |
| 20260501203525 | 18 | 234 | 8.0 | 20.9 | 0.00 | 0.00 | 0.00 | 24 | 935.9 |
| 20260501203026 | 18 | 157 | 14.5 | 32.2 | 0.00 | 0.00 | 0.00 | 25 | 936.0 |
| 20260501202628 | 18 | 172 | 9.7 | 24.1 | 0.00 | 0.00 | 0.00 | 24 | 936.0 |
| 20260501202026 | 18 | 152 | 8.0 | 24.1 | 0.00 | 0.00 | 0.00 | 25 | 936.0 |
| 20260501201524 | 18 | 175 | 4.8 | 12.9 | 0.00 | 0.00 | 0.00 | 25 | 936.0 |
| 20260501201024 | 18 | 305 | 4.8 | 20.9 | 0.00 | 0.00 | 0.00 | 25 | 936.1 |
| 20260501200523 | 18 | 193 | 11.3 | 20.9 | 0.00 | 0.00 | 0.00 | 26 | 936.2 |
| 20260501200022 | 17 | 219 | 6.4 | 19.3 | 0.00 | 0.00 | 0.00 | 26 | 936.2 |
| 20260501195526 | 17 | 215 | 6.4 | 16.1 | 0.00 | 0.00 | 0.00 | 26 | 936.1 |
| 20260501195021 | 17 | 194 | 1.6 | 22.5 | 0.00 | 0.00 | 0.00 | 27 | 936.2 |
| 20260501194522 | 17 | 202 | 8.0 | 22.5 | 0.00 | 0.00 | 0.00 | 26 | 936.2 |
| 20260501194021 | 17 | 198 | 8.0 | 16.1 | 0.00 | 0.00 | 0.00 | 26 | 936.1 |
| 20260501193520 | 17 | 206 | 8.0 | 16.1 | 0.00 | 0.00 | 0.00 | 27 | 936.3 |
| 20260501193029 | 17 | 220 | 1.6 | 14.5 | 0.00 | 0.00 | 0.00 | 26 | 936.2 |
| 20260501192618 | 17 | 161 | 3.2 | 24.1 | 0.00 | 0.00 | 0.00 | 27 | 936.3 |
| 20260501192018 | 17 | 161 | 6.4 | 24.1 | 0.00 | 0.00 | 0.00 | 27 | 936.5 |
| 20260501191520 | 17 | 163 | 14.5 | 24.1 | 0.00 | 0.00 | 0.00 | 26 | 936.4 |
| 20260501191017 | 17 | 166 | 6.4 | 19.3 | 0.00 | 0.00 | 0.00 | 28 | 936.4 |
| 20260501190517 | 17 | 146 | 11.3 | 19.3 | 0.00 | 0.00 | 0.00 | 28 | 936.4 |